User: anonymous   Login
Location: Unspecified
(0.0000°N, 0.0000°E)
Time: 05:23:13
(UTC+01:00)
Language:

SWIFT - Orbit

View from above orbital plane
View from above orbital plane
View from above satellite
View from above satellite

Ground track
Ground track

The orbit data is extracted from the following two-line orbital elements,

1 28485U 04047A   14297.62773715  .00007221  00000-0  53571-3 0  8011
2 28485 020.5582 038.7115 0011947 294.3513 065.5673 14.99657671542643
Epoch (UTC): 24 October 2014 15:03:56
Eccentricity: 0.0011947
inclination: 20.5582°
perigee height: 559 km
apogee height: 576 km
right ascension of ascending node: 38.7115°
argument of perigee: 294.3513°
revolutions per day: 14.99657671
mean anomaly at epoch: 65.5673°
orbit number at epoch: 54264

The dashed part of the orbit path shows where the satellite is in the earth's shadow,  

DLR